Location: Clegg Observatory
(38.9178°N, 78.6069°W)
Time: 01:58:45
(UTC-04:00)

Daily predictions for brighter satellites

Satellite Brightness Start Highest point End
(mag) Time Altitude Azimuth Time Altitude Azimuth Time Altitude Azimuth
Meteor 1-11 Rocket 4.0 00:06:55 61° W 00:07:08 61° W 00:12:52 10° N
ATLAS 2AS CENTAUR R/B 4.1 00:04:05 10° NNW 00:11:30 37° NE 00:14:44 27° E
Cosmos 2123 Rocket 3.9 00:05:17 10° N 00:11:20 78° NE 00:11:20 78° NE
ALOS 2 4.3 00:14:47 27° NNE 00:14:47 27° NNE 00:17:14 10° N
NOSS 3-1 (C) 3.9 00:12:34 10° NW 00:20:15 77° WSW 00:21:03 71° SSW
H-2A R/B 4.0 00:22:52 20° W 00:23:02 20° W 00:26:52 10° NW
USA 234 3.8 00:18:31 10° NE 00:24:53 56° NW 00:30:12 15° WSW
Cosmos 2369 Rocket 2.5 00:26:49 63° NNW 00:26:49 63° NNW 00:31:47 10° NNE
Terra 4.2 00:35:40 14° W 00:35:40 14° W 00:37:41 10° WNW
CZ-2C R/B 4.4 00:30:37 10° NE 00:33:08 22° ENE 00:33:08 22° ENE
MOS 1-B Rocket 4.2 00:52:07 66° NE 00:52:07 66° NE 00:58:34 10° N
Cosmos 1943 Rocket 2.8 00:59:41 50° NNE 00:59:41 50° NNE 01:03:47 10° NNE
H-2A R/B 4.3 00:55:08 10° N 00:57:39 32° N 00:57:39 32° N
Lacrosse 5 3.9 01:04:10 18° WNW 01:06:32 24° NNW 01:10:40 10° NNE
ATLAS 3B CENTAUR R/B 4.4 01:12:50 49° SSE 01:12:50 49° SSE 01:35:36 10° E
Cosmos 2100 Rocket 4.2 01:18:56 71° NNW 01:18:56 71° NNW 01:24:40 10° N
Cosmos 1459 Rocket 4.3 01:32:34 59° NW 01:32:34 59° NW 01:37:49 10° N
Cosmos 2016 Rocket 4.1 01:36:18 68° N 01:36:18 68° N 01:41:33 10° N
Cosmos 2061 Rocket 4.3 01:37:38 60° WNW 01:37:38 60° WNW 01:43:28 10° N
NOSS 3-3 (A) 4.2 01:41:21 67° NE 01:41:21 67° NE 01:47:06 10° NE
NOSS 3-3 (C) 4.2 01:41:26 67° NE 01:41:26 67° NE 01:47:11 10° NE
Cosmos 1802 Rocket 4.3 01:46:47 57° NW 01:46:47 57° NW 01:52:21 10° N
BREEZE-M DEB (TANK) 4.4 01:44:24 10° WNW 01:52:44 34° N 01:54:02 28° NE
CZ-2C R/B 4.0 01:56:01 40° NNW 01:56:01 40° NNW 01:59:09 10° NNW
ATLAS 2AS CENTAUR R/B 3.2 01:55:04 10° NW 02:02:07 55° W 02:02:07 55° W
Cosmos 1725 Rocket 4.2 02:13:06 63° NW 02:13:06 63° NW 02:18:41 10° N
CZ-2C R/B 3.9 02:10:42 10° N 02:14:39 32° NW 02:14:39 32° NW
Cosmos 1816 Rocket 4.5 02:11:35 10° N 02:17:32 80° NNW 02:17:32 80° NNW
Meteor 2-9 Rocket 4.4 02:19:56 71° NNE 02:19:56 71° NNE 02:25:05 10° N
Cosmos 2219 4.4 02:20:01 10° NW 02:23:14 31° WNW 02:23:14 31° WNW
Cosmos 2227 Rocket 2.9 02:21:18 10° NNW 02:26:49 49° ENE 02:27:28 46° E
Cosmos 2098 Rocket 4.5 02:27:02 56° W 02:27:17 56° WNW 02:34:43 10° N
Tsikada Rocket 4.3 02:23:05 10° NNW 02:28:37 54° WNW 02:28:37 54° WNW
Meteor 1-15 Rocket 4.4 02:36:00 70° NW 02:36:00 70° NW 02:41:25 10° N
Cosmos 972 Rocket 4.3 02:35:45 10° NNW 02:39:55 62° N 02:39:55 62° N
Cosmos 1943 Rocket 4.4 02:41:11 13° WNW 02:42:42 14° NW 02:45:33 10° NNW
Cosmos 2278 3.7 02:45:40 78° NNE 02:45:40 78° NNE 02:50:59 10° NNE
Meteor 2-5 Rocket 4.4 02:40:09 10° N 02:45:54 53° ENE 02:46:59 47° ESE
NPP 4.0 02:41:06 10° NNE 02:46:15 56° E 02:46:15 56° E
BREEZE-M DEB (TANK) 3.7 02:46:37 83° E 02:46:37 83° E 02:49:59 10° ENE
Cosmos 2369 3.7 02:47:40 78° NE 02:47:40 78° NE 02:53:01 10° NNE
Cosmos 2297 Rocket 2.8 02:42:25 10° NNW 02:47:56 51° ENE 02:49:22 41° ESE
Cosmos 2298 Rocket 4.3 02:43:10 10° NNW 02:48:26 63° ENE 02:48:27 63° ENE
SL-16 R/B 4.5 02:44:06 10° ESE 02:48:50 24° ENE 02:53:34 10° NNE
ATLAS CENTAUR R/B 2.3 02:53:11 57° ENE 02:53:11 57° ENE 02:57:21 10° NE
Cosmos 2346 Rocket 4.4 02:48:42 10° NNW 02:54:54 68° W 02:54:54 68° W
SeaSat 1 3.2 02:58:00 44° NW 02:58:00 44° NW 03:01:26 10° NNW
Cosmos 468 Rocket 4.0 03:03:37 78° NE 03:03:37 78° NE 03:08:28 10° NNE
Cosmos 405 Rocket 4.0 03:00:07 10° N 03:02:53 40° NNE 03:02:53 40° NNE
AQUA 3.9 03:04:27 10° NNE 03:08:54 72° ENE 03:08:54 72° ENE
NOSS 2-1 (E) 4.2 03:11:30 51° N 03:11:30 51° N 03:15:02 10° NNE
Cosmos 1464 Rocket 3.9 03:15:30 66° SW 03:16:17 75° W 03:22:39 10° N
ERS-2 3.4 03:13:38 10° NNE 03:16:22 40° NE 03:16:22 40° NE
Meteor 1-24 Rocket 4.1 03:18:24 10° N 03:24:08 64° E 03:26:30 36° SSE
Okean 3 Rocket 3.7 03:19:55 10° N 03:23:54 71° NNE 03:23:54 71° NNE
Cosmos 1656 3.5 03:23:43 72° SSW 03:24:20 87° WNW 03:30:02 10° NNE
Cosmos 2150 Rocket 4.0 03:20:49 10° NNW 03:25:35 64° WNW 03:25:35 64° WNW
NOSS 3-4 (A) 3.8 03:19:01 10° NNW 03:26:04 80° ENE 03:33:31 10° SE
NOSS 3-4 (C) 3.9 03:19:08 10° NNW 03:26:13 79° ENE 03:33:41 10° SE
Cosmos 972 4.3 03:21:48 10° NNW 03:26:32 75° W 03:26:32 75° W
IRAS Rocket 4.1 03:23:22 10° NNE 03:29:01 80° WNW 03:29:53 65° SW
Cosmos 1898 Rocket 3.6 03:25:47 10° NNW 03:30:42 58° W 03:30:42 58° W
Cosmos 841 Rocket 3.6 03:33:02 56° SSE 03:33:55 67° ESE 03:39:10 10° NNE
IRS-1C 4.0 03:30:03 10° N 03:35:23 75° WNW 03:36:06 64° SW
CZ-2D R/B 3.1 03:30:22 10° NNE 03:35:31 42° E 03:37:43 28° SSE
Cosmos 1441 Rocket 4.3 03:33:46 10° N 03:37:37 44° ENE 03:38:28 38° ESE
SL-08 R/B 3.9 03:39:16 42° WNW 03:39:16 42° WNW 03:42:56 10° NNW
Cosmos 1763 Rocket 3.4 03:38:11 65° S 03:38:59 84° ESE 03:44:12 10° NNE
Geosat 3.9 03:35:27 10° NNE 03:40:28 72° WNW 03:41:10 62° WSW
Cosmos 1076 Rocket 4.0 03:36:19 10° N 03:40:34 56° E 03:41:32 45° SE
Cosmos 1937 Rocket 3.3 03:35:37 10° NNW 03:40:47 68° WSW 03:41:09 65° SW
CBERS 1 LM4 rocket 4.3 03:36:16 10° N 03:41:03 72° WNW 03:41:29 66° WSW
Cosmos 1707 4.0 03:41:41 10° NNW 03:44:09 32° NW 03:44:09 32° NW
Cosmos 1953 3.3 03:47:49 35° SE 03:48:46 42° E 03:52:38 10° NNE
Cosmos 1697 Rocket 2.7 03:53:03 49° SW 03:54:29 67° WNW 04:00:09 10° NNE
USA 161 3.5 03:58:25 23° NNW 03:58:25 23° NNW 03:59:37 10° NNW
ARIANE 5 R/B 2.4 03:52:52 10° NNE 03:58:02 90° WNW 03:59:42 45° SSW
ERS-1 4.5 03:56:11 10° N 04:01:12 64° WNW 04:02:23 48° SW
Cosmos 1980 Rocket 2.1 04:01:23 42° SSW 04:03:23 88° ESE 04:09:05 10° NNE
Cosmos 540 Rocket 4.3 04:00:53 25° SSE 04:03:30 45° ESE 04:08:25 10° NNE
Cosmos-2242 3.0 04:06:27 44° S 04:07:45 77° E 04:12:03 10° N
ADEOS 4.0 04:02:48 10° N 04:07:47 45° WNW 04:09:06 37° WSW
Okean O Rocket 3.3 04:05:46 10° NE 04:09:38 29° E 04:13:02 12° SSE
Cosmos 2227 Rocket 3.6 04:06:14 10° NW 04:09:13 20° W 04:09:13 20° W
BREEZE-M R/B 4.3 04:05:20 10° WNW 04:11:11 52° SW 04:18:13 10° SSE
Resurs 1-4 Rocket 2.0 04:06:06 10° NNE 04:11:23 89° WNW 04:13:46 34° SSW
BREEZE-M DEB (TANK) 2.9 04:13:42 37° SW 04:15:36 89° NW 04:19:40 10° NE
Cosmos 2322 Rocket 3.1 04:12:13 18° SSE 04:16:00 42° ESE 04:21:15 10° NE
Cosmos 1408 Rocket 3.6 04:12:54 10° NNW 04:17:13 57° W 04:18:18 43° SW
Abrixas 3.1 04:17:06 23° NW 04:18:46 57° NNE 04:21:47 10° ESE
Cosmos 1766 Rocket 3.7 04:17:27 10° NNW 04:21:46 55° W 04:23:05 39° SSW
Nadezhda 4 Rocket 4.4 04:20:19 10° NNW 04:26:07 43° W 04:28:54 27° SW
DELTA 2 R/B (2) 3.8 04:27:24 64° E 04:27:24 64° E 04:29:10 10° E
RESURS DK-1 3.5 04:23:28 10° NNW 04:27:28 45° ENE 04:31:25 10° SE
IRS-1D 3.8 04:23:20 10° N 04:28:08 49° WNW 04:30:10 31° SW
Cosmos 2297 Rocket 3.5 04:27:29 10° NW 04:31:06 20° W 04:31:06 20° W
ATLAS CENTAUR R/B 3.7 04:29:31 14° WNW 04:31:56 19° NW 04:35:28 10° N
SL-16 R/B 2.6 04:27:43 19° S 04:32:02 54° W 04:38:04 10° NNW
Cosmos 1378 4.4 04:34:49 10° NW 04:37:48 24° W 04:37:48 24° W
Cosmos 1655 Rocket 4.1 04:32:54 10° N 04:39:20 88° E 04:45:43 10° S
Cosmos 1470 3.1 04:37:58 16° S 04:40:57 63° E 04:44:53 10° NNE
Cosmos 1842 Rocket 3.5 04:39:10 20° S 04:42:16 89° W 04:46:46 10° N
CZ-2D R/B 3.5 04:40:20 10° N 04:44:42 74° WNW 04:47:36 21° SSW
MOZ.5/SAFIR/RUBIN 5/SL-8 4.2 04:41:06 10° SSE 04:45:46 65° ENE 04:50:26 10° N
Cosmos 1461 2.7 04:45:06 10° NNW 04:49:14 89° ENE 04:53:11 10° SSE
SL-16 R/B 2.3 04:45:30 16° SSW 04:50:02 78° ESE 04:55:44 10° NNE
PSLV R/B 3.7 04:46:24 10° NNE 04:50:15 87° ESE 04:53:02 17° SSW
Cosmos 2360 4.5 04:46:59 22° SW 04:50:31 55° WNW 04:56:09 10° NNE
GPS 2-04 Rocket1 3.1 04:50:41 25° WSW 04:52:31 42° SSW 04:56:10 10° ESE
SL-24 R/B - RUBIN 2 4.3 04:51:13 20° SW 04:55:15 76° WNW 05:01:39 10° NNE
ARGOS Delta rocket 4.3 04:50:56 10° NNE 04:55:58 66° E 05:00:42 10° S
Okean-O 4.4 04:52:42 10° NE 04:56:40 31° E 05:00:36 10° SSE
Cosmos 2026 Rocket 4.0 04:50:49 10° NNW 04:57:03 63° W 05:03:11 10° S
USA 81 4.2 04:56:04 15° SSW 05:00:22 56° W 05:05:35 10° N
Cosmos 372 Rocket 3.9 04:57:11 10° NNW 05:02:17 71° WSW 05:07:20 10° S
Cosmos 2263 Rocket 3.4 04:57:59 10° N 05:03:21 46° ENE 05:08:39 10° SE
Cosmos 332 Rocket 4.1 05:00:31 19° SW 05:03:47 49° WNW 05:08:29 10° N
UNKNOWN OBJECT B 3.9 05:02:41 10° NNW 05:06:00 27° WNW 05:07:58 17° WSW
CZ-4B R/B 2.7 05:02:49 10° NNE 05:06:44 84° E 05:10:26 10° S
Cosmos 1437 4.2 05:09:22 10° NW 05:11:58 21° W 05:13:16 17° SW
CZ-4B R/B 3.2 05:06:45 10° N 05:12:18 79° WNW 05:17:42 10° SSW
Cosmos 2151 3.0 05:08:53 10° N 05:13:14 87° E 05:17:31 10° S
CZ-2D R/B 3.4 05:10:58 10° NNW 05:15:18 25° WNW 05:19:04 12° WSW
DELTA 2 R/B (1) 4.0 05:11:24 15° SW 05:15:54 53° SSE 05:21:20 10° E
PAYLOAD B 4.3 05:10:57 10° N 05:16:32 70° WNW 05:22:04 10° SSW
Milstar 3 Cent rocket 3.6 05:13:36 14° WSW 05:17:42 32° S 05:25:35 10° ESE
IRS-1C Rocket 4.4 05:12:44 10° N 05:17:49 50° WNW 05:22:52 10° SW
ADEOS II 3.1 05:13:48 10° NNE 05:18:51 46° E 05:23:53 10° S
Cosmos 1733 3.4 05:15:23 11° SSW 05:18:56 51° W 05:22:40 10° N
Cosmos 1125 Rocket 4.4 05:14:38 10° NW 05:19:01 28° W 05:23:23 10° SSW
Meteor 1-16 Rocket 4.5 05:16:59 10° S 05:22:54 83° E 05:28:51 10° N
Cosmos 371 Rocket 3.7 05:18:44 12° SW 05:22:59 47° WNW 05:27:39 10° N
Cosmos 1953 4.4 05:23:35 10° W 05:25:28 13° WNW 05:27:23 10° NW
Cosmos 1328 3.8 05:25:11 10° NNW 05:29:11 65° W 05:33:10 10° S
GEOS 3 Rocket 4.4 05:28:08 10° S 05:32:35 28° WSW 05:37:02 10° WNW
Alouette 2 Rocket 4.0 05:29:44 10° N 05:33:21 63° E 05:37:54 10° SSE
Aureole 3 4.0 05:32:55 10° N 05:37:26 88° W 05:43:16 10° S
CZ-3 R/B 3.4 05:18:02 10° WSW 05:43:22 46° S 05:49:54 10° ESE
Cosmos 2228 Rocket 4.0 05:39:38 10° S 05:43:59 53° E 05:48:24 10° NNE
Okean O Rocket 2.9 05:42:21 10° NNW 05:45:51 24° WNW 05:49:21 10° WSW
Cosmos 2360 Rocket 2.3 05:42:16 10° SSW 05:47:53 90° WNW 05:53:34 10° NNE
